DLH27A EHAM-EDDF

Flight info

Callsign DLH27A
Flight time N/A
Altitude 35000
Route EDUPO Z739 MISGO DCT DIXAT DIXAT1D
Aircraft A339/H-SADE1E2E3GHIJ3J5M1P2RWXY/LB2D1

Departure

Time 2026-04-30 14:58
Airport Amsterdam Airport Schiphol (EHAM)

Arrival

Time N/A
Airport Frankfurt Main Airport (EDDF)
Time Latitude Longitude Altitude Speed Heading
2026-04-30 14:35 52.30795 4.77102 3 ft 0 kts 183°
2026-04-30 14:43 52.30796 4.77102 3 ft 0 kts 183°
2026-04-30 14:46 52.30815 4.77103 3 ft 5 kts 183°
2026-04-30 14:47 52.30835 4.77112 5 ft 3 kts 162°
2026-04-30 14:47 52.30827 4.77148 3 ft 3 kts 97°
2026-04-30 14:47 52.30837 4.77188 3 ft 5 kts 70°
2026-04-30 14:47 52.30844 4.77251 3 ft 5 kts 86°
2026-04-30 14:48 52.30844 4.77264 3 ft 0 kts 88°
2026-04-30 14:51 52.30844 4.77272 3 ft 2 kts 88°
2026-04-30 14:51 52.30845 4.77280 3 ft 0 kts 88°
2026-04-30 14:52 52.30845 4.77302 3 ft 6 kts 88°
2026-04-30 14:52 52.30845 4.77407 3 ft 12 kts 95°
2026-04-30 14:53 52.30926 4.77611 3 ft 16 kts
2026-04-30 14:53 52.31064 4.77622 3 ft 24 kts
2026-04-30 14:54 52.31469 4.77625 3 ft 20 kts 335°
2026-04-30 14:54 52.31569 4.77106 3 ft 32 kts 268°
2026-04-30 14:55 52.31540 4.76220 3 ft 45 kts 267°
2026-04-30 14:55 52.31520 4.75680 3 ft 51 kts 266°
2026-04-30 14:55 52.31493 4.74712 3 ft 23 kts 281°
2026-04-30 14:56 52.31533 4.74663 3 ft 0 kts 347°
2026-04-30 14:56 52.31587 4.74656 4 ft 10 kts 360°
2026-04-30 14:57 52.31664 4.74725 4 ft 15 kts 59°
2026-04-30 14:57 52.31725 4.76372 13 ft 161 kts 88°
2026-04-30 14:58 52.31960 4.80867 1242 ft 223 kts 87°
2026-04-30 14:58 52.32075 4.83486 2101 ft 235 kts 88°
2026-04-30 14:58 52.31667 4.88867 3867 ft 247 kts 116°
2026-04-30 14:59 52.30236 4.93951 6046 ft 245 kts 109°
2026-04-30 15:00 52.28889 5.02050 9233 ft 246 kts 108°
2026-04-30 15:00 52.27770 5.07315 11288 ft 246 kts 111°
2026-04-30 15:01 52.26750 5.11694 12734 ft 256 kts 108°
2026-04-30 15:01 52.26238 5.14617 13230 ft 276 kts 105°
2026-04-30 15:01 52.24949 5.20752 14210 ft 310 kts 121°
2026-04-30 15:02 52.23685 5.23698 14698 ft 325 kts 125°
2026-04-30 15:02 52.22290 5.26715 15148 ft 335 kts 126°
2026-04-30 15:03 52.18009 5.35912 16551 ft 345 kts 125°
2026-04-30 15:03 52.15108 5.42239 17516 ft 351 kts 125°
2026-04-30 15:04 52.12152 5.48688 18539 ft 358 kts 125°
2026-04-30 15:04 52.07637 5.58497 19892 ft 367 kts 125°
2026-04-30 15:05 52.02983 5.68569 21310 ft 375 kts 125°
2026-04-30 15:06 51.99810 5.75411 22284 ft 382 kts 125°
2026-04-30 15:06 51.96605 5.82307 23297 ft 388 kts 125°
2026-04-30 15:07 51.93328 5.89341 24265 ft 395 kts 125°
2026-04-30 15:07 51.89986 5.96484 25119 ft 401 kts 125°
2026-04-30 15:08 51.86709 6.03477 25350 ft 403 kts 125°
2026-04-30 15:08 51.81235 6.13869 25333 ft 404 kts 129°
2026-04-30 15:09 51.77532 6.20651 25328 ft 405 kts 129°
2026-04-30 15:09 51.73795 6.27483 25327 ft 405 kts 129°
2026-04-30 15:10 51.70071 6.34267 25326 ft 406 kts 129°
2026-04-30 15:11 51.62600 6.47815 25330 ft 407 kts 129°
2026-04-30 15:11 51.58884 6.54535 25335 ft 406 kts 129°
2026-04-30 15:12 51.53497 6.64248 25336 ft 407 kts 129°
2026-04-30 15:13 51.49740 6.70993 25315 ft 407 kts 129°
2026-04-30 15:14 51.42189 6.84511 25330 ft 408 kts 129°
2026-04-30 15:14 51.36792 6.94959 25332 ft 407 kts 126°
2026-04-30 15:16 51.26424 7.10028 25341 ft 414 kts 146°
2026-04-30 15:17 51.16554 7.19447 25332 ft 414 kts 146°
2026-04-30 15:18 51.04209 7.31211 25347 ft 414 kts 146°
2026-04-30 15:19 50.96789 7.38248 24932 ft 412 kts 146°